Location: Paris
(48.6709°N, 2.3750°E)
Time: 08:10:57
(UTC+02:00)

CUBESAT XI-V - Pass Details

Date: 04 July 2022
Orbit: 668 x 690 km, 98.1° (Epoch: 18 August)

Event Time Altitude Azimuth Distance (km) Brightness Sun altitude
Exits shadow 01:50:06 - 109° (ESE) 2,822 ? -18.4°
Reaches altitude 10° 01:52:41 10° 89° (E) 2,105 ? -18.4°
Maximum altitude 01:55:06 14° 57° (ENE) 1,828 ? -18.4°
Drops below altitude 10° 01:57:31 10° 25° (NNE) 2,108 ? -18.4°
Sets 02:00:41 0° 1° (N) 3,026 ? -18.4°
